Overview Statistics Trail Chart Weather Telemetry Raw packets
 

This is the latest recevied weather packets stored in our database for station/object VE3EP-1. If no packets are shown the sender has not sent any weather packets the latest 10 day(s).

<< 31 32 33 34 35 36 37 >>
Time Temp. Humidity Pressure Rain* Wind** Luminosity Snow
1787939047 20.56° C 52% 1023.3 hPa 0 mm - - -
1787938447 20° C 52% 1023.1 hPa 0 mm - - -
1787937847 20.56° C 52% 1023.3 hPa 0 mm - - -
1787936647 20.56° C 54% 1023.3 hPa 0 mm - - -
1787936048 20° C 58% 1023.1 hPa 0 mm - - -
1787935448 20.56° C 54% 1023.1 hPa 0 mm - - -
1787934847 19.44° C 61% 1023.2 hPa 0 mm - - -
1787934247 19.44° C 59% 1023.1 hPa 0 mm - - -
1787933647 20° C 60% 1023 hPa 0 mm - - -
1787933047 18.89° C 58% 1023 hPa 0 mm - - -
1787931847 18.89° C 60% 1023 hPa 0 mm - - -
1787930648 18.89° C 64% 1022.9 hPa 0 mm - - -
1787926447 17.22° C 72% 1022.1 hPa 0 mm - - -
1787925847 17.22° C 75% 1021.8 hPa 0 mm - - -
1787925247 17.22° C 77% 1021.8 hPa 0 mm - - -
1787924649 16.67° C 78% 1021.8 hPa 0 mm - - -
1787923448 16.67° C 80% 1021.4 hPa 0 mm - - -
1787920448 16.11° C 86% 1020.9 hPa 0 mm - - -
1787919848 16.11° C 86% 1020.8 hPa 0 mm - - -
1787919248 16.11° C 87% 1020.6 hPa 0 mm - - -
1787918647 16.11° C 90% 1020.4 hPa 0 mm - - -
1787918048 16.67° C 91% 1020.3 hPa 0 mm - - -
1787917448 16.11° C 92% 1020.1 hPa 0 mm - - -
1787916847 16.11° C 92% 1019.8 hPa 0 mm - - -
1787916248 16.11° C 92% 1019.7 hPa 0 mm - - -

* Rain latest hour (hover to see other rain measurements)
** Current wind speed in m/s (hover to see current wind gust speed)